Retour au catalogue

COSMOS 2253

ActifNavigationPO
NORAD 22688·PAYLOAD·🇷🇺 Russia

Lancé Jun 24, 1993 depuis Plesetsk Cosmodrome

Loading…

Prochains Passages (prochaines 24 heures)

TLE

FraisSource: Space-Track

Époque: Sep 14, 2026, 14:01 UTC

1 22688U 93038B   26257.58428228  .00000025  00000-0  83605-4 0  9993
2 22688  82.5893 200.4327 0011796 159.9815 200.1741 12.61603412529774

Suivez COSMOS 2253 en temps réel avec AllMySat

Download on the App Store